Regional Weather Roundup
Issued by NWS

Home | Current Version | Previous Version | Graphics & Text | Print | Product List | Glossary On
Versions: 1 2 3 4 5 6 7 8 9 10 11 12 13 14 15 16 17 18 19 20 21 22 23 24 25 26 27 28 29 30 31 32 33 34 35 36 37 38 39 40 41 42 43 44 45 46 47 48 49 50
000
ASUS43 KIND 231500
RWRIN

WEATHER ROUNDUP FOR INDIANA
NATIONAL WEATHER SERVICE INDIANAPOLIS IN
1100 AM EDT SAT SEP 23 2017

NOTE: "FAIR" INDICATES FEW OR NO CLOUDS BELOW 12,000 FEET WITH NO
SIGNIFICANT WEATHER AND/OR OBSTRUCTIONS TO VISIBILITY.

* - STATION DOES NOT REPORT WEATHER SUCH AS PRECIPITATION OR FOG.

+ - STATION NOT QUALITY CONTROLLED BY THE NATIONAL WEATHER SERVICE.
    USE DATA WITH CAUTION...ESPECIALLY DEWPOINT AND RELATIVE
    HUMIDITY OBSERVATIONS.

INZ001>003-010>013-019-020-231600-
NORTHWEST INDIANA

CITY           SKY/WX    TMP DP  RH WIND       PRES   REMARKS
GARY /AIRPORT/ SUNNY     84  66  54 SE5       30.12S
MICHIGAN CITY+ SUNNY     81  70  69 CALM      30.13S
MONTICELLO +   SUNNY     79  68  69 CALM      30.12S
RENSSELAER +   SUNNY     81  63  54 CALM      30.13S

$$

LMZ046-743>745-231600-
SOUTHERN LAKE MICHIGAN

STATION/POSITION TIME  TEMP    WIND        PRES    WAVE
                       AIR SEA DIR/SP/G            HT
                 (UTC) (F)     (DEG/KT/KT) (MB)    (FT)
BURNS HARBOR     1440   81     190/  3/  5 1020.0S
MICHIGAN CITY    1430   80     140/  2/  2   N/A
5NW MICH CITY    1450   75 72  100/  2/  2   N/A     0

$$

INZ004-005-014>016-021>024-231600-
NORTH CENTRAL INDIANA

CITY           SKY/WX    TMP DP  RH WIND       PRES   REMARKS
ELKHART        SUNNY     79  68  69 CALM      30.14S
GOSHEN         SUNNY     81  67  62 CALM      30.14S
SOUTH BEND     SUNNY     81  71  71 CALM      30.14S

$$

INZ006>009-017-018-025>027-231600-
NORTHEAST INDIANA

CITY           SKY/WX    TMP DP  RH WIND       PRES   REMARKS
FORT WAYNE     SUNNY     80  69  69 CALM      30.15S
KENDALLVILLE + SUNNY     78  69  73 CALM      30.16R

$$

INZ028-029-035-036-043>045-051>053-231600-
WEST CENTRAL INDIANA

CITY           SKY/WX    TMP DP  RH WIND       PRES   REMARKS
GREENCASTLE +  SUNNY     82  66  57 CALM      30.14S
LAFAYETTE      SUNNY     79  70  74 CALM      30.12S
TERRE HAUTE    SUNNY     83  66  56 CALM      30.13R

$$

INZ030>032-037>040-046>048-054>057-064-065-231600-
CENTRAL INDIANA

CITY           SKY/WX    TMP DP  RH WIND       PRES   REMARKS
ANDERSON       SUNNY     81  66  61 CALM      30.15R
INDIANAPOLIS   MOSUNNY   84  67  56 CALM      30.14R
-EAGLE CREEK   SUNNY     84  67  56 CALM      30.13S
KOKOMO +       SUNNY     82  70  66 CALM      30.15S
MT COMFORT *+  SUNNY     81  68  65 CALM      30.14S
SHELBYVILLE    SUNNY     83  66  56 SW3       30.14R

$$

INZ033-034-041-042-049-050-058-059-231600-
EAST CENTRAL INDIANA

CITY           SKY/WX    TMP DP  RH WIND       PRES   REMARKS
MUNCIE         SUNNY     84  67  56 SW3       30.15R
RICHMOND +     SUNNY     79  64  61 CALM      30.16S

$$

INZ060-061-067>069-081>083-085>088-231600-
SOUTHWEST INDIANA

CITY           SKY/WX    TMP DP  RH WIND       PRES   REMARKS
EVANSVILLE     SUNNY     80  68  66 CALM      30.11R
HUNTINGBURG +  SUNNY     79  67  66 E3        30.12R

$$

INZ062-063-066-070>080-084-089>092-231600-
SOUTH CENTRAL AND SOUTHEAST INDIANA

CITY           SKY/WX    TMP DP  RH WIND       PRES   REMARKS
BLOOMINGTON    SUNNY     83  63  50 E5        30.14R
MADISON *+       N/A     81  64  57 E5        30.15S
SEYMOUR +      SUNNY     82  64  54 NE3       30.13

$$




USA.gov is the U.S. government's official web portal to all federal, state and local government web resources and services.